Volver al catálogo

DELTA 1 DEB

ActivoSSO
NORAD 18647·DEBRIS·🇺🇸 United States

Lanzado Nov 6, 1973 desde Vandenberg Space Force Base

Loading…

Próximos Pases (próximas 24 horas)

TLE

ActualizadoSource: Space-Track

Época: Sep 12, 2026, 08:35 UTC

1 18647U 73086GY  26255.35808609 -.00000010  00000-0  22831-3 0  9990
2 18647 101.7167 213.6683 0074497  24.4968 129.6192 12.47043953352462

Sigue DELTA 1 DEB en tiempo real con AllMySat

Download on the App Store